| time (UTC) | temp F | wind direction | speed knots | gust knots | rain 1hr in | rain 24hr in | rain mn in | humidity % | barometer mb |
| 20260508063019 | 59 | 174 | 4.3 | 9.6 | 0.00 | 0.00 | 0.00 | 81 | 1016.8 |
| 20260508062029 | 58 | 179 | 3.5 | 7.8 | 0.00 | 0.00 | 0.00 | 81 | 1016.6 |
| 20260508061029 | 58 | 174 | 4.3 | 8.7 | 0.00 | 0.00 | 0.00 | 82 | 1016.5 |
| 20260508060017 | 58 | 173 | 4.3 | 9.6 | 0.00 | 0.00 | 0.00 | 83 | 1016.5 |
| 20260508055022 | 58 | 185 | 3.5 | 7.8 | 0.00 | 0.00 | 0.00 | 84 | 1016.6 |
| 20260508054028 | 57 | 181 | 6.1 | 9.6 | 0.00 | 0.00 | 0.00 | 83 | 1016.4 |
| 20260508053031 | 58 | 164 | 5.2 | 12.2 | 0.00 | 0.00 | 0.00 | 82 | 1016.4 |
| 20260508052020 | 57 | 172 | 5.2 | 11.3 | 0.00 | 0.00 | 0.00 | 82 | 1016.4 |
| 20260508051024 | 57 | 161 | 4.3 | 8.7 | 0.00 | 0.00 | 0.00 | 84 | 1016.3 |
| 20260508050029 | 55 | 176 | 4.3 | 8.7 | 0.00 | 0.00 | 0.00 | 87 | 1016.2 |
| 20260508045058 | 54 | 175 | 3.5 | 7.0 | 0.00 | 0.00 | 0.00 | 87 | 1016.2 |
| 20260508032028 | 50 | 164 | 3.5 | 6.1 | 0.00 | 0.00 | 0.00 | 92 | 1015.9 |
| 20260508031016 | 50 | 156 | 2.6 | 7.0 | 0.00 | 0.00 | 0.00 | 92 | 1015.7 |
| 20260508030021 | 50 | 163 | 2.6 | 6.1 | 0.00 | 0.00 | 0.00 | 92 | 1015.6 |
| 20260508025026 | 50 | 160 | 2.6 | 7.0 | 0.00 | 0.00 | 0.00 | 92 | 1015.7 |
| 20260508024033 | 50 | 169 | 3.5 | 8.7 | 0.00 | 0.00 | 0.00 | 92 | 1015.7 |
| 20260508015022 | 50 | 185 | 2.6 | 5.2 | 0.00 | 0.00 | 0.00 | 92 | 1015.9 |
| 20260508014027 | 50 | 185 | 1.7 | 6.1 | 0.00 | 0.00 | 0.00 | 92 | 1015.9 |
| 20260508013037 | 50 | 183 | 2.6 | 5.2 | 0.00 | 0.00 | 0.00 | 93 | 1015.9 |
| 20260508012020 | 50 | 177 | 3.5 | 7.0 | 0.00 | 0.00 | 0.00 | 93 | 1015.9 |
| 20260508011025 | 50 | 161 | 4.3 | 7.0 | 0.00 | 0.00 | 0.00 | 93 | 1015.8 |
| 20260508010030 | 50 | 161 | 3.5 | 6.1 | 0.00 | 0.00 | 0.00 | 94 | 1015.8 |
| 20260508005017 | 50 | 172 | 3.5 | 7.0 | 0.00 | 0.00 | 0.00 | 94 | 1015.9 |
| 20260508004023 | 50 | 173 | 4.3 | 7.8 | 0.00 | 0.00 | 0.00 | 94 | 1015.9 |
| 20260508003027 | 50 | 165 | 5.2 | 8.7 | 0.00 | 0.00 | 0.00 | 94 | 1016.0 |
| 20260508002032 | 50 | 165 | 4.3 | 7.0 | 0.00 | 0.00 | 0.00 | 93 | 1015.7 |
| 20260508001021 | 50 | 167 | 3.5 | 8.7 | 0.00 | 0.00 | 0.00 | 93 | 1015.9 |
| 20260508000026 | 50 | 155 | 3.5 | 7.0 | 0.00 | 0.00 | 0.00 | 93 | 1015.9 |
| 20260507235030 | 50 | 162 | 4.3 | 8.7 | 0.00 | 0.00 | 0.00 | 93 | 1015.7 |
| 20260507234018 | 50 | 159 | 4.3 | 9.6 | 0.00 | 0.00 | 0.00 | 93 | 1015.8 |
| 20260507233025 | 50 | 148 | 4.3 | 8.7 | 0.00 | 0.00 | 0.00 | 93 | 1016.0 |
| 20260507232028 | 50 | 162 | 4.3 | 11.3 | 0.00 | 0.00 | 0.00 | 93 | 1016.3 |
| 20260507231016 | 50 | 158 | 3.5 | 7.0 | 0.00 | 0.00 | 0.00 | 93 | 1016.1 |
| 20260507230021 | 50 | 153 | 4.3 | 7.8 | 0.00 | 0.00 | 0.00 | 93 | 1016.4 |
| 20260507225026 | 50 | 160 | 3.5 | 7.8 | 0.00 | 0.00 | 0.00 | 93 | 1016.6 |
| 20260507224031 | 50 | 159 | 3.5 | 7.0 | 0.00 | 0.00 | 0.00 | 92 | 1016.6 |
| 20260507223019 | 50 | 152 | 3.5 | 6.1 | 0.00 | 0.00 | 0.00 | 92 | 1016.7 |
| 20260507222025 | 50 | 157 | 3.5 | 7.0 | 0.00 | 0.00 | 0.00 | 92 | 1016.7 |
| 20260507221029 | 50 | 156 | 3.5 | 6.1 | 0.00 | 0.00 | 0.00 | 92 | 1016.9 |
| 20260507220017 | 50 | 149 | 3.5 | 8.7 | 0.00 | 0.00 | 0.00 | 92 | 1016.9 |
| 20260507215022 | 50 | 163 | 4.3 | 7.8 | 0.00 | 0.00 | 0.00 | 92 | 1016.8 |
| 20260507214027 | 50 | 145 | 4.3 | 9.6 | 0.00 | 0.00 | 0.00 | 92 | 1016.8 |
| 20260507213032 | 50 | 149 | 5.2 | 8.7 | 0.00 | 0.00 | 0.00 | 92 | 1016.9 |
| 20260507212020 | 50 | 160 | 3.5 | 6.1 | 0.00 | 0.00 | 0.00 | 92 | 1016.8 |
| 20260507211025 | 50 | 154 | 4.3 | 7.0 | 0.00 | 0.00 | 0.00 | 92 | 1016.8 |
| 20260507210031 | 50 | 151 | 4.3 | 7.8 | 0.00 | 0.00 | 0.00 | 92 | 1016.8 |
| 20260507205021 | 50 | 147 | 4.3 | 7.0 | 0.00 | 0.00 | 0.00 | 92 | 1016.8 |
| 20260507204023 | 50 | 150 | 4.3 | 7.0 | 0.00 | 0.00 | 0.00 | 91 | 1016.8 |
| 20260507203028 | 50 | 156 | 4.3 | 7.8 | 0.00 | 0.00 | 0.00 | 91 | 1016.7 |
| 20260507202017 | 50 | 147 | 4.3 | 8.7 | 0.00 | 0.00 | 0.00 | 91 | 1016.7 |
| 20260507201021 | 50 | 151 | 5.2 | 7.8 | 0.00 | 0.00 | 0.00 | 91 | 1016.7 |
| 20260507200027 | 50 | 147 | 4.3 | 8.7 | 0.00 | 0.00 | 0.00 | 91 | 1016.7 |
| 20260507195031 | 50 | 153 | 4.3 | 9.6 | 0.00 | 0.00 | 0.00 | 91 | 1016.7 |
| 20260507194018 | 50 | 154 | 5.2 | 9.6 | 0.00 | 0.00 | 0.00 | 91 | 1016.8 |
| 20260507193025 | 51 | 150 | 5.2 | 9.6 | 0.00 | 0.00 | 0.00 | 90 | 1016.8 |
| 20260507192028 | 51 | 154 | 5.2 | 8.7 | 0.00 | 0.00 | 0.00 | 90 | 1016.8 |
| 20260507191018 | 51 | 160 | 5.2 | 12.2 | 0.00 | 0.00 | 0.00 | 90 | 1016.8 |
| 20260507190021 | 51 | 154 | 6.1 | 12.2 | 0.00 | 0.00 | 0.00 | 89 | 1016.8 |
| 20260507185026 | 51 | 152 | 5.2 | 11.3 | 0.00 | 0.00 | 0.00 | 89 | 1016.7 |
| 20260507184031 | 51 | 158 | 4.3 | 9.6 | 0.00 | 0.00 | 0.00 | 88 | 1016.6 |
| 20260507183019 | 51 | 147 | 6.1 | 12.2 | 0.00 | 0.00 | 0.00 | 88 | 1016.4 |
| 20260507182024 | 51 | 154 | 6.1 | 12.2 | 0.00 | 0.00 | 0.00 | 88 | 1016.4 |
| 20260507181029 | 52 | 148 | 6.1 | 11.3 | 0.00 | 0.00 | 0.00 | 88 | 1016.4 |
| 20260507180017 | 52 | 147 | 6.1 | 13.9 | 0.00 | 0.00 | 0.00 | 87 | 1016.3 |
| 20260507175022 | 52 | 140 | 7.8 | 13.9 | 0.00 | 0.00 | 0.00 | 86 | 1016.2 |
| 20260507174027 | 52 | 145 | 7.0 | 12.2 | 0.00 | 0.00 | 0.00 | 86 | 1016.3 |
| 20260507173032 | 53 | 161 | 7.0 | 12.2 | 0.00 | 0.00 | 0.00 | 84 | 1016.1 |
| 20260507172020 | 53 | 153 | 6.1 | 12.2 | 0.00 | 0.00 | 0.00 | 83 | 1016.1 |
| 20260507171025 | 54 | 149 | 7.8 | 13.0 | 0.00 | 0.00 | 0.00 | 82 | 1016.2 |
| 20260507170030 | 54 | 150 | 7.0 | 13.9 | 0.00 | 0.00 | 0.00 | 80 | 1016.4 |
| 20260507165018 | 55 | 156 | 7.8 | 15.6 | 0.00 | 0.00 | 0.00 | 79 | 1016.4 |
| 20260507164023 | 55 | 148 | 5.2 | 9.6 | 0.00 | 0.00 | 0.00 | 78 | 1016.4 |
| 20260507163028 | 56 | 147 | 7.0 | 14.8 | 0.00 | 0.00 | 0.00 | 77 | 1016.3 |
| 20260507162033 | 57 | 135 | 9.6 | 16.5 | 0.00 | 0.00 | 0.00 | 75 | 1016.4 |
| 20260507161022 | 58 | 147 | 7.8 | 14.8 | 0.00 | 0.00 | 0.00 | 71 | 1016.4 |
| 20260507160026 | 59 | 144 | 8.7 | 14.8 | 0.00 | 0.00 | 0.00 | 69 | 1016.3 |
| 20260507155031 | 59 | 153 | 7.8 | 18.2 | 0.00 | 0.00 | 0.00 | 68 | 1016.4 |
| 20260507154019 | 59 | 156 | 7.0 | 13.0 | 0.00 | 0.00 | 0.00 | 67 | 1016.2 |
| 20260507153024 | 60 | 155 | 7.0 | 13.0 | 0.00 | 0.00 | 0.00 | 66 | 1016.3 |
| 20260507152030 | 61 | 145 | 7.8 | 13.9 | 0.00 | 0.00 | 0.00 | 63 | 1016.4 |
| 20260507151018 | 63 | 137 | 7.8 | 14.8 | 0.00 | 0.00 | 0.00 | 60 | 1016.5 |
| 20260507150022 | 65 | 127 | 7.8 | 15.6 | 0.00 | 0.00 | 0.00 | 60 | 1016.5 |
| 20260507145028 | 66 | 150 | 8.7 | 16.5 | 0.00 | 0.00 | 0.00 | 59 | 1016.5 |
| 20260507144032 | 66 | 128 | 8.7 | 15.6 | 0.00 | 0.00 | 0.00 | 59 | 1016.7 |
| 20260507143019 | 67 | 146 | 7.8 | 14.8 | 0.00 | 0.00 | 0.00 | 58 | 1016.8 |
| 20260507142025 | 66 | 168 | 7.0 | 14.8 | 0.00 | 0.00 | 0.00 | 61 | 1016.8 |
| 20260507141029 | 65 | 170 | 7.0 | 13.0 | 0.00 | 0.00 | 0.00 | 61 | 1016.7 |
| 20260507140017 | 64 | 151 | 7.8 | 15.6 | 0.00 | 0.00 | 0.00 | 62 | 1016.8 |
| 20260507135024 | 65 | 154 | 6.1 | 12.2 | 0.00 | 0.00 | 0.00 | 61 | 1016.8 |
| 20260507134027 | 66 | 168 | 6.1 | 13.0 | 0.00 | 0.00 | 0.00 | 60 | 1016.9 |
| 20260507133032 | 66 | 155 | 7.0 | 15.6 | 0.00 | 0.00 | 0.00 | 60 | 1016.8 |
| 20260507132020 | 66 | 151 | 7.0 | 13.9 | 0.00 | 0.00 | 0.00 | 61 | 1017.0 |
| 20260507131025 | 66 | 144 | 7.0 | 13.0 | 0.00 | 0.00 | 0.00 | 62 | 1016.9 |
| 20260507130030 | 65 | 146 | 7.0 | 14.8 | 0.00 | 0.00 | 0.00 | 62 | 1016.9 |
| 20260507125018 | 65 | 159 | 7.0 | 13.9 | 0.00 | 0.00 | 0.00 | 62 | 1017.0 |
| 20260507124023 | 65 | 156 | 7.0 | 16.5 | 0.00 | 0.00 | 0.00 | 61 | 1017.0 |
| 20260507123028 | 66 | 161 | 7.8 | 16.5 | 0.00 | 0.00 | 0.00 | 60 | 1017.1 |
| 20260507122017 | 65 | 161 | 7.8 | 14.8 | 0.00 | 0.00 | 0.00 | 61 | 1017.3 |
| 20260507121021 | 65 | 143 | 8.7 | 15.6 | 0.00 | 0.00 | 0.00 | 63 | 1017.4 |
| 20260507120026 | 65 | 162 | 8.7 | 16.5 | 0.00 | 0.00 | 0.00 | 62 | 1017.3 |
| 20260507115033 | 65 | 154 | 8.7 | 16.5 | 0.00 | 0.00 | 0.00 | 62 | 1017.4 |
| 20260507114021 | 65 | 149 | 9.6 | 15.6 | 0.00 | 0.00 | 0.00 | 62 | 1017.4 |
| 20260507113024 | 65 | 149 | 7.8 | 14.8 | 0.00 | 0.00 | 0.00 | 63 | 1017.4 |
| 20260507112029 | 65 | 143 | 8.7 | 18.2 | 0.00 | 0.00 | 0.00 | 62 | 1017.3 |
| 20260507111017 | 65 | 142 | 7.8 | 15.6 | 0.00 | 0.00 | 0.00 | 61 | 1017.3 |
| 20260507110022 | 65 | 164 | 8.7 | 13.9 | 0.00 | 0.00 | 0.00 | 60 | 1017.2 |
| 20260507105027 | 65 | 143 | 7.8 | 14.8 | 0.00 | 0.00 | 0.00 | 60 | 1017.3 |
| 20260507104033 | 65 | 162 | 7.8 | 16.5 | 0.00 | 0.00 | 0.00 | 59 | 1017.3 |
| 20260507103020 | 65 | 164 | 8.7 | 15.6 | 0.00 | 0.00 | 0.00 | 60 | 1017.4 |
| 20260507102025 | 65 | 151 | 8.7 | 15.6 | 0.00 | 0.00 | 0.00 | 61 | 1017.6 |
| 20260507101030 | 65 | 154 | 7.8 | 16.5 | 0.00 | 0.00 | 0.00 | 61 | 1017.3 |
| 20260507100018 | 65 | 156 | 7.0 | 15.6 | 0.00 | 0.00 | 0.00 | 60 | 1017.3 |
| 20260507095024 | 64 | 166 | 7.8 | 14.8 | 0.00 | 0.00 | 0.00 | 62 | 1017.4 |
| 20260507094028 | 65 | 170 | 7.8 | 15.6 | 0.00 | 0.00 | 0.00 | 60 | 1017.4 |
| 20260507093033 | 65 | 142 | 8.7 | 19.1 | 0.00 | 0.00 | 0.00 | 61 | 1017.3 |
| 20260507092021 | 65 | 163 | 7.8 | 13.0 | 0.00 | 0.00 | 0.00 | 60 | 1017.3 |
| 20260507091028 | 65 | 164 | 8.7 | 14.8 | 0.00 | 0.00 | 0.00 | 60 | 1017.3 |
| 20260507090032 | 65 | 151 | 8.7 | 14.8 | 0.00 | 0.00 | 0.00 | 61 | 1017.4 |
| 20260507085019 | 64 | 153 | 7.0 | 11.3 | 0.00 | 0.00 | 0.00 | 63 | 1017.4 |
| 20260507084024 | 64 | 137 | 7.8 | 14.8 | 0.00 | 0.00 | 0.00 | 62 | 1017.4 |
| 20260507083029 | 64 | 167 | 6.1 | 13.0 | 0.00 | 0.00 | 0.00 | 62 | 1017.3 |
| 20260507082016 | 64 | 166 | 6.1 | 13.9 | 0.00 | 0.00 | 0.00 | 62 | 1017.3 |
| 20260507081022 | 64 | 151 | 7.0 | 13.0 | 0.00 | 0.00 | 0.00 | 61 | 1017.3 |
| 20260507080026 | 64 | 164 | 7.0 | 14.8 | 0.00 | 0.00 | 0.00 | 61 | 1017.1 |
| 20260507075031 | 63 | 147 | 7.8 | 13.9 | 0.00 | 0.00 | 0.00 | 63 | 1017.3 |
| 20260507074019 | 62 | 157 | 7.8 | 13.9 | 0.00 | 0.00 | 0.00 | 62 | 1017.4 |
| 20260507073024 | 62 | 162 | 7.0 | 13.9 | 0.00 | 0.00 | 0.00 | 63 | 1017.4 |
| 20260507072029 | 62 | 167 | 7.8 | 13.9 | 0.00 | 0.00 | 0.00 | 65 | 1017.3 |
| 20260507071017 | 61 | 157 | 7.8 | 13.9 | 0.00 | 0.00 | 0.00 | 65 | 1017.5 |
| 20260507070022 | 61 | 136 | 8.7 | 15.6 | 0.00 | 0.00 | 0.00 | 68 | 1017.4 |
| 20260507065027 | 60 | 168 | 7.8 | 18.2 | 0.00 | 0.00 | 0.00 | 69 | 1017.6 |
| 20260507064024 | 60 | 159 | 7.0 | 12.2 | 0.00 | 0.00 | 0.00 | 69 | 1017.6 |